Ann Arbor, MI

5:00 AM EST on November 24, 2017 (GMT -0500)
Ann Arbor Municipal

Weather History for KARB - March, 2013

Change the Weather History Date:

Tuesday, March 19, 2013

  Actual Average Record
Temperature  
Mean Temperature 29 °F -  
Max Temperature 35 °F 42 °F 77 °F (2012)
Min Temperature 23 °F 24 °F 21 °F (2001)
Degree Days  
Heating Degree Days 36    
Moisture  
Dew Point 17 °F    
Average Humidity 68    
Maximum Humidity 87    
Minimum Humidity 58    
Precipitation  
Precipitation 0.00 in - - ()
Sea Level Pressure  
Sea Level Pressure 29.78 in    
Wind  
Wind Speed 17 mph (WSW)    
Max Wind Speed 25 mph    
Max Gust Speed 38 mph    
Visibility 8 miles    
Events Snow    
Averages and records for this station are not official NWS values.
T = Trace of Precipitation, MM = Missing Value Source: NWS Daily Summary

Daily Weather History Graph

Daily Weather History Graph

Search for Another Location

Airport or City:

Trip Planner

Search our weather history database for the weather conditions in past years. The results will help you decide how hot, cold, wet, or windy it might be!

Date:

Astronomy

Mar. 19, 2013 Rise Set
Actual Time 7:39 AM EDT 7:46 PM EDT
Civil Twilight 7:11 AM EDT 8:14 PM EDT
Nautical Twilight 6:39 AM EDT 8:47 PM EDT
Astronomical Twilight 6:05 AM EDT 9:20 PM EDT
Moon 12:22 PM EDT (3/19) 2:38 AM EDT (3/19)
Length of Visible Light 13h 02m
Length of Day
12h 06m
Waxing Crescent, 49% of the Moon is Illuminated
Mar 19
Waxing Crescent
Mar 19
First Quarter
Mar 27
Full
Apr 3
Last Quarter
Apr 10
New

Hourly Weather History & Observations

Time (EDT) Temp. Windchill Dew Point Humidity Pressure Visibility Wind Dir Wind Speed Gust Speed Precip Events Conditions
12:49 AM 33.8 °F 25.8 °F 30.2 °F 87% 29.62 in 10.0 mi WSW 10.4 mph - N/A   Overcast
12:53 AM 34.0 °F 26.0 °F 30.0 °F 85% 29.65 in 10.0 mi WSW 10.4 mph - N/A   Overcast
1:22 AM 33.8 °F 26.4 °F 30.2 °F 87% 29.61 in 10.0 mi SW 9.2 mph - N/A   Overcast
1:33 AM 33.8 °F 25.8 °F 30.2 °F 87% 29.61 in 10.0 mi SW 10.4 mph - N/A   Overcast
1:53 AM 35.1 °F 27.9 °F 28.9 °F 78% 29.63 in 10.0 mi WSW 9.2 mph - N/A   Overcast
2:53 AM 30.9 °F 18.7 °F 23.0 °F 72% 29.67 in 10.0 mi West 19.6 mph 29.9 mph 0.00 in   Overcast
3:53 AM 28.0 °F 13.3 °F 19.0 °F 69% 29.69 in 10.0 mi WSW 25.3 mph 31.1 mph N/A   Overcast
4:53 AM 26.1 °F 12.0 °F 17.1 °F 69% 29.72 in 10.0 mi West 20.7 mph 28.8 mph N/A   Overcast
5:53 AM 25.0 °F 11.3 °F 18.0 °F 75% 29.73 in 5.0 mi West 18.4 mph 23.0 mph 0.00 in Snow Light Snow
6:28 AM 24.8 °F 10.0 °F 15.8 °F 69% 29.71 in 9.0 mi West 21.9 mph 28.8 mph 0.00 in   Overcast
6:53 AM 24.1 °F 10.6 °F 15.1 °F 69% 29.75 in 10.0 mi WSW 17.3 mph 25.3 mph 0.00 in   Overcast
7:53 AM 24.1 °F 11.0 °F 15.1 °F 69% 29.77 in 6.0 mi WSW 16.1 mph 25.3 mph 0.00 in Snow Light Snow
8:29 AM 23.0 °F 10.6 °F 15.8 °F 74% 29.74 in 3.0 mi WSW 13.8 mph 26.5 mph 0.00 in Snow Light Snow
8:53 AM 23.0 °F 9.2 °F 15.1 °F 72% 29.77 in 4.0 mi WSW 17.3 mph 25.3 mph 0.00 in Snow Light Snow
9:06 AM 23.0 °F 7.6 °F 14.0 °F 68% 29.74 in 9.0 mi WSW 21.9 mph 28.8 mph 0.00 in   Overcast
9:46 AM 24.8 °F 11.1 °F 17.6 °F 74% 29.74 in 3.0 mi WSW 18.4 mph 24.2 mph 0.00 in Snow Light Snow
9:53 AM 23.0 °F 9.2 °F 16.0 °F 74% 29.77 in 3.0 mi WSW 17.3 mph 24.2 mph 0.00 in Snow Light Snow
10:23 AM 24.8 °F 9.6 °F 14.0 °F 64% 29.74 in 9.0 mi West 23.0 mph 31.1 mph 0.00 in   Overcast
10:40 AM 24.8 °F 10.0 °F 15.8 °F 69% 29.75 in 2.5 mi WSW 21.9 mph 29.9 mph 0.00 in Snow Light Snow
10:53 AM 24.1 °F 10.1 °F 14.0 °F 65% 29.78 in 9.0 mi West 18.4 mph 26.5 mph 0.00 in   Overcast
11:31 AM 24.8 °F 9.6 °F 12.2 °F 59% 29.76 in 8.0 mi West 23.0 mph 33.4 mph 0.00 in Snow Light Snow
11:44 AM 24.8 °F 9.3 °F 12.2 °F 59% 29.76 in 10.0 mi WSW 24.2 mph 32.2 mph 0.00 in   Overcast
11:53 AM 25.0 °F 10.6 °F 12.9 °F 60% 29.80 in 10.0 mi West 20.7 mph 32.2 mph 0.00 in   Overcast
12:53 PM 25.0 °F 9.9 °F 14.0 °F 63% 29.81 in 7.0 mi West 23.0 mph 31.1 mph 0.00 in Snow Light Snow
1:38 PM 24.8 °F 10.3 °F 15.8 °F 69% 29.79 in 9.0 mi WSW 20.7 mph 34.5 mph 0.00 in Snow Light Snow
1:53 PM 26.1 °F 11.0 °F 12.9 °F 58% 29.83 in 9.0 mi West 24.2 mph 34.5 mph 0.00 in Snow Light Snow
2:45 PM 24.8 °F 10.0 °F 15.8 °F 69% 29.81 in 4.0 mi WSW 21.9 mph 32.2 mph 0.00 in Snow Light Snow
2:53 PM 25.0 °F 10.2 °F 14.0 °F 63% 29.85 in 7.0 mi West 21.9 mph 33.4 mph 0.00 in Snow Light Snow
3:04 PM 24.8 °F 9.0 °F 14.0 °F 64% 29.81 in 8.0 mi WSW 25.3 mph 34.5 mph 0.00 in Snow Light Snow
3:11 PM 24.8 °F 9.6 °F 15.8 °F 69% 29.82 in 8.0 mi West 23.0 mph 34.5 mph 0.00 in Snow Light Snow
3:53 PM 27.0 °F 11.9 °F 15.1 °F 61% 29.86 in 9.0 mi WSW 25.3 mph 38.0 mph 0.00 in Snow Light Snow
4:53 PM 27.0 °F 13.9 °F 16.0 °F 63% 29.87 in 9.0 mi West 18.4 mph 33.4 mph 0.00 in Snow Light Snow
5:53 PM 28.0 °F 15.3 °F 16.0 °F 61% 29.89 in 10.0 mi West 18.4 mph 32.2 mph 0.00 in   Overcast
6:53 PM 28.0 °F 15.3 °F 16.0 °F 61% 29.91 in 10.0 mi West 18.4 mph 26.5 mph N/A   Overcast
7:53 PM 28.0 °F 15.7 °F 16.0 °F 61% 29.93 in 10.0 mi West 17.3 mph - N/A   Overcast
8:53 PM 27.0 °F 14.3 °F 15.1 °F 61% 29.95 in 10.0 mi West 17.3 mph 27.6 mph N/A   Mostly Cloudy
9:53 PM 27.0 °F 14.3 °F 14.0 °F 58% 29.96 in 10.0 mi West 17.3 mph 24.2 mph N/A   Partly Cloudy
10:53 PM 27.0 °F 15.2 °F 14.0 °F 58% 29.96 in 10.0 mi West 15.0 mph 23.0 mph N/A   Scattered Clouds
11:53 PM 27.0 °F 16.1 °F 14.0 °F 58% 29.96 in 10.0 mi West 12.7 mph 23.0 mph N/A   Mostly Cloudy